This demonstration page uses our WeatherBlox Daily Observations layout. Learn more.

Left ArrowRight Arrow

Hourly Observations for July 29, 2021

Temp ( °F °C ) Dew Point ( °F °C ) Humidity (%) Winds ( mph kmh ) Pressure ( in mb ) Visibility ( mi km ) Precip ( " mm )
12:56 am 00:56 Mostly Clear 81 27.2 69 20.6 67 67 SSW 15 24 29.95 1014 10 16 0.00 0.00
1:56 am 01:56 Mostly Clear 80 26.7 69 20.6 69 69 SSW 10 17 29.95 1014 10 16 0.00 0.00
2:56 am 02:56 Clear 79 26.1 69 20.6 72 72 SSW 12 19 29.95 1014 10 16 0.00 0.00
3:56 am 03:56 Clear 77 25 69 20.6 77 77 SSW 10 17 29.96 1015 10 16 0.00 0.00
4:56 am 04:56 Clear 75 23.9 69 20.6 82 82 SSW 8 13 29.97 1015 10 16 0.00 0.00
5:56 am 05:56 Clear 75 23.9 69 20.6 82 82 SW 8 13 29.97 1015 10 16 0.00 0.00
6:56 am 06:56 Mostly Cloudy 74 23.3 68 20 82 82 NNW 6 9 30.01 1016 10 16 0.00 0.00
7:56 am 07:56 Sunny 75 23.9 69 20.6 82 82 NNE 3 6 30.03 1017 10 16 0.00 0.00
8:56 am 08:56 Sunny 79 26.1 71 21.7 77 77 SE 3 6 30.04 1017 10 16 0.00 0.00
9:56 am 09:56 Mostly Sunny 83 28.3 71 21.7 67 67 SSE 3 6 30.04 1017 10 16 0.00 0.00
10:56 am 10:56 Sunny 88 31.1 71 21.7 57 57 VRB 3 6 30.03 1017 10 16 0.00 0.00
11:56 am 11:56 Sunny 90 32.2 73 22.8 58 58 ENE 6 9 30.04 1017 10 16 0.00 0.00
12:56 pm 12:56 Sunny 90 32.2 75 23.9 62 62 VRB 3 6 30.03 1017 10 16 0.00 0.00
1:56 pm 13:56 Sunny 91 32.8 76 24.4 61 61 E 6 9 30.02 1017 10 16 0.00 0.00
2:56 pm 14:56 Sunny 92 33.3 79 26.1 66 66 ENE 10 17 30.03 1017 10 16 0.00 0.00
3:56 pm 15:56 Mostly Sunny 92 33.3 78 25.6 64 64 NE 8 13 30.02 1017 10 16 0.00 0.00
4:56 pm 16:56 Sunny 92 33.3 79 26.1 66 66 ENE 13 20 30.01 1016 10 16 0.00 0.00
5:56 pm 17:56 Sunny 88 31.1 79 26.1 75 75 ENE 14 22 30.02 1017 10 16 0.00 0.00
6:56 pm 18:56 Sunny 84 28.9 78 25.6 82 82 ENE 12 19 30.03 1017 10 16 0.00 0.00
7:56 pm 19:56 Mostly Cloudy 82 27.8 76 24.4 82 82 ENE 10 17 30.04 1017 10 16 0.00 0.00
8:13 pm 20:13 Partly Cloudy 81 27 75 24 84 84 ENE 14 22 29.97 1015 10 16 0.00 0.00
8:21 pm 20:21 Mostly Cloudy 81 27 75 24 84 84 ENE 13 20 29.97 1015 10 16 0.00 0.00
8:56 pm 20:56 Cloudy 79 26.1 75 23.9 88 88 ENE 12 19 30.04 1017 10 16 0.00 0.00
9:37 pm 21:37 Partly Cloudy 79 26 73 23 84 84 ENE 12 19 29.99 1016 10 16 0.00 0.00
9:56 pm 21:56 Clear 77 25 74 23.3 90 90 NE 9 15 30.05 1018 10 16 0.00 0.00
10:25 pm 22:25 Mostly Cloudy 77 25 73 23 89 89 E 9 15 30.01 1016 9 14 0.00 0.00
10:54 pm 22:54 Partly Cloudy 75 24 73 23 94 94 ENE 7 11 30.02 1016 8 13 0.00 0.00
10:56 pm 22:56 Partly Cloudy 75 23.9 73 22.8 94 94 NE 7 11 30.06 1018 8 13 0.00 0.00
11:56 pm 23:56 Partly Cloudy with Mist and Fog 74 23.3 73 22.8 97 97 E 8 13 30.06 1018 6 10 0.00 0.00

Powered by AerisWeather